Overview Statistics Trail Chart Weather Telemetry Raw packets
 

This is the latest recevied weather packets stored in our database for station/object EA7URS-13. If no packets are shown the sender has not sent any weather packets the latest 10 day(s).

<< 68 69 70 71 72 73 74 >>
Time Temp. Humidity Pressure Rain* Wind** Luminosity Snow
1788177793 33.89° C 28% 1009.7 hPa 0 mm - 691 W/m² -
1788177492 33.89° C 28% 1009.7 hPa 0 mm - 691 W/m² -
1788177191 33.89° C 28% 1009.9 hPa 0 mm - 688 W/m² -
1788176889 33.89° C 28% 1009.9 hPa 0 mm - 688 W/m² -
1788176588 33.33° C 28% 1010 hPa 0 mm - 206 W/m² -
1788176287 33.33° C 28% 1010 hPa 0 mm - 206 W/m² -
1788175986 32.78° C 30% 1010.1 hPa 0 mm - 673 W/m² -
1788175685 32.78° C 30% 1010.1 hPa 0 mm - 673 W/m² -
1788175384 32.78° C 30% 1010.2 hPa 0 mm - 666 W/m² -
1788175083 32.78° C 30% 1010.2 hPa 0 mm - 666 W/m² -
1788174782 31.67° C 31% 1010.1 hPa 0 mm - 96 W/m² -
1788174481 31.67° C 31% 1010.1 hPa 0 mm - 96 W/m² -
1788174179 32.22° C 31% 1010.4 hPa 0 mm - 359 W/m² -
1788173879 32.22° C 31% 1010.4 hPa 0 mm - 359 W/m² -
1788173577 31.67° C 32% 1010.3 hPa 0 mm - 315 W/m² -
1788173278 31.67° C 32% 1010.3 hPa 0 mm - 315 W/m² -
1788172975 32.78° C 31% 1010.5 hPa 0 mm - 66 W/m² -
1788172674 32.78° C 31% 1010.5 hPa 0 mm - 66 W/m² -
1788172373 31.67° C 33% 1010.3 hPa 0 mm - 585 W/m² -
1788172072 31.67° C 33% 1010.3 hPa 0 mm - 585 W/m² -
1788171771 31.11° C 34% 1010.6 hPa 0 mm - 576 W/m² -
1788171470 31.11° C 34% 1010.6 hPa 0 mm - 576 W/m² -
1788171168 30.56° C 35% 1010.8 hPa 0 mm - 561 W/m² -
1788170868 30.56° C 35% 1010.8 hPa 0 mm - 561 W/m² -
1788170566 30° C 35% 1010.8 hPa 0 mm - 536 W/m² -

* Rain latest hour (hover to see other rain measurements)
** Current wind speed in m/s (hover to see current wind gust speed)